******** Week 367 almanac for PRN-1 ******** ID: 1 Health: 0 Eccentricity: 0.001708984375 Time of Applicability(s): 319488 Orbital Inclination(rad): 0.9575299826 Rate of Right Ascen(r/s): -8.114623721e-09 SQRT(A) (m 1/2): 5153.566895 Right Ascen at Week(rad): 2.258611816 Argument of Perigee(rad): 0.1682772431 Mean Anom(rad): 2.297344082 Af0(s): 0.0002306243408 Af1(s/s): -7.275958e-12 week: 367 ******** Week 367 almanac for PRN-2 ******** ID: 2 Health: 0 Eccentricity: 0.01682329178 Time of Applicability(s): 319488 Orbital Inclination(rad): 0.9626053018 Rate of Right Ascen(r/s): -7.977475151e-09 SQRT(A) (m 1/2): 5153.717285 Right Ascen at Week(rad): 2.096249163 Argument of Perigee(rad): -0.7790626283 Mean Anom(rad): -2.476982745 Af0(s): 6.632333984e-05 Af1(s/s): 7.275958e-12 week: 367 ******** Week 367 almanac for PRN-3 ******** ID: 3 Health: 0 Eccentricity: 0.006724834442 Time of Applicability(s): 319488 Orbital Inclination(rad): 0.9942616319 Rate of Right Ascen(r/s): -7.748894201e-09 SQRT(A) (m 1/2): 5153.560059 Right Ascen at Week(rad): -3.03590003 Argument of Perigee(rad): 1.210444916 Mean Anom(rad): 0.2397987228 Af0(s): 0.0003896496216 Af1(s/s): -1.455192e-11 week: 367 ******** Week 367 almanac for PRN-4 ******** ID: 4 Health: 0 Eccentricity: 0.003713130951 Time of Applicability(s): 319488 Orbital Inclination(rad): 0.9709523145 Rate of Right Ascen(r/s): -7.691748963e-09 SQRT(A) (m 1/2): 5153.666992 Right Ascen at Week(rad): -1.966618049 Argument of Perigee(rad): -2.872414605 Mean Anom(rad): -3.094443344 Af0(s): 4.295943603e-05 Af1(s/s): 0 week: 367 ******** Week 367 almanac for PRN-5 ******** ID: 5 Health: 0 Eccentricity: 0.005508422852 Time of Applicability(s): 319488 Orbital Inclination(rad): 0.9807434262 Rate of Right Ascen(r/s): -7.886042771e-09 SQRT(A) (m 1/2): 5153.687988 Right Ascen at Week(rad): -3.096280675 Argument of Perigee(rad): 1.422528246 Mean Anom(rad): -2.432143019 Af0(s): -0.0001831428589 Af1(s/s): 0 week: 367 ******** Week 367 almanac for PRN-6 ******** ID: 6 Health: 0 Eccentricity: 0.003771305084 Time of Applicability(s): 319488 Orbital Inclination(rad): 0.9863220829 Rate of Right Ascen(r/s): -7.817468486e-09 SQRT(A) (m 1/2): 5153.623535 Right Ascen at Week(rad): 2.210553202 Argument of Perigee(rad): -0.5317029831 Mean Anom(rad): 1.520073096 Af0(s): -0.0004815978882 Af1(s/s): 3.637979e-12 week: 367 ******** Week 367 almanac for PRN-7 ******** ID: 7 Health: 0 Eccentricity: 0.02077102661 Time of Applicability(s): 319488 Orbital Inclination(rad): 0.9507768718 Rate of Right Ascen(r/s): -7.874613723e-09 SQRT(A) (m 1/2): 5153.549805 Right Ascen at Week(rad): -0.9579983414 Argument of Perigee(rad): -1.975279647 Mean Anom(rad): 0.6908935621 Af0(s): -0.0001394297485 Af1(s/s): -3.637979e-12 week: 367 ******** Week 367 almanac for PRN-8 ******** ID: 8 Health: 0 Eccentricity: 0.01159715652 Time of Applicability(s): 319488 Orbital Inclination(rad): 0.9428792676 Rate of Right Ascen(r/s): -7.966046103e-09 SQRT(A) (m 1/2): 5153.657227 Right Ascen at Week(rad): 1.087709974 Argument of Perigee(rad): 0.5389601803 Mean Anom(rad): -2.791333833 Af0(s): 0.0003610099976 Af1(s/s): -7.275958e-12 week: 367 ******** Week 367 almanac for PRN-9 ******** ID: 9 Health: 0 Eccentricity: 0.003366470337 Time of Applicability(s): 319488 Orbital Inclination(rad): 0.9652118707 Rate of Right Ascen(r/s): -7.760323248e-09 SQRT(A) (m 1/2): 5153.703125 Right Ascen at Week(rad): -2.03121377 Argument of Perigee(rad): 2.0449608 Mean Anom(rad): -2.185326408 Af0(s): 0.0005984174072 Af1(s/s): -3.637979e-12 week: 367 ******** Week 367 almanac for PRN-10 ******** ID: 10 Health: 0 Eccentricity: 0.01093912125 Time of Applicability(s): 319488 Orbital Inclination(rad): 0.9937762708 Rate of Right Ascen(r/s): -7.748894201e-09 SQRT(A) (m 1/2): 5153.609375 Right Ascen at Week(rad): -3.038406606 Argument of Perigee(rad): -2.256928782 Mean Anom(rad): -0.7544762419 Af0(s): -0.0004650170532 Af1(s/s): 0 week: 367 ******** Week 367 almanac for PRN-11 ******** ID: 11 Health: 0 Eccentricity: 0.002237796783 Time of Applicability(s): 319488 Orbital Inclination(rad): 0.9632224894 Rate of Right Ascen(r/s): -8.057478483e-09 SQRT(A) (m 1/2): 5153.551758 Right Ascen at Week(rad): 2.228223942 Argument of Perigee(rad): -2.33292974 Mean Anom(rad): 2.695291506 Af0(s): -0.0002879035889 Af1(s/s): 1.091394e-11 week: 367 ******** Week 367 almanac for PRN-12 ******** ID: 12 Health: 0 Eccentricity: 0.0088763237 Time of Applicability(s): 319488 Orbital Inclination(rad): 0.9593695611 Rate of Right Ascen(r/s): -7.794610391e-09 SQRT(A) (m 1/2): 5153.688965 Right Ascen at Week(rad): 0.1599100071 Argument of Perigee(rad): 1.575126378 Mean Anom(rad): -0.02094280754 Af0(s): -0.0004800905395 Af1(s/s): 0 week: 367 ******** Week 367 almanac for PRN-13 ******** ID: 13 Health: 0 Eccentricity: 0.01017045975 Time of Applicability(s): 319488 Orbital Inclination(rad): 0.9764350973 Rate of Right Ascen(r/s): -7.634603726e-09 SQRT(A) (m 1/2): 5153.62793 Right Ascen at Week(rad): -1.855429534 Argument of Perigee(rad): 0.9935982306 Mean Anom(rad): -3.013550574 Af0(s): 0.000535862439 Af1(s/s): 0 week: 367 ******** Week 367 almanac for PRN-14 ******** ID: 14 Health: 0 Eccentricity: 0.007004261017 Time of Applicability(s): 319488 Orbital Inclination(rad): 0.94268752 Rate of Right Ascen(r/s): -7.977475151e-09 SQRT(A) (m 1/2): 5153.59668 Right Ascen at Week(rad): 0.1044957001 Argument of Perigee(rad): -2.723197522 Mean Anom(rad): -0.1513955898 Af0(s): 0.0005878659668 Af1(s/s): 0 week: 367 ******** Week 367 almanac for PRN-15 ******** ID: 15 Health: 0 Eccentricity: 0.01668834686 Time of Applicability(s): 319488 Orbital Inclination(rad): 0.943274747 Rate of Right Ascen(r/s): -8.023191341e-09 SQRT(A) (m 1/2): 5153.668457 Right Ascen at Week(rad): -2.176491788 Argument of Perigee(rad): 1.510232923 Mean Anom(rad): 2.498186958 Af0(s): 0.0003203115845 Af1(s/s): 3.637979e-12 week: 367 ******** Week 367 almanac for PRN-16 ******** ID: 16 Health: 0 Eccentricity: 0.0149974823 Time of Applicability(s): 319488 Orbital Inclination(rad): 0.9584827284 Rate of Right Ascen(r/s): -7.828897533e-09 SQRT(A) (m 1/2): 5153.615234 Right Ascen at Week(rad): 0.1767954055 Argument of Perigee(rad): 0.9329898856 Mean Anom(rad): -1.741757288 Af0(s): 0.0001974626709 Af1(s/s): 7.275958e-12 week: 367 ******** Week 367 almanac for PRN-17 ******** ID: 17 Health: 0 Eccentricity: 0.01258230209 Time of Applicability(s): 319488 Orbital Inclination(rad): 0.95845876 Rate of Right Ascen(r/s): -7.817468486e-09 SQRT(A) (m 1/2): 5153.574707 Right Ascen at Week(rad): 1.193214222 Argument of Perigee(rad): -1.113143496 Mean Anom(rad): -2.8233231 Af0(s): -9.420928955e-05 Af1(s/s): -7.275958e-12 week: 367 ******** Week 367 almanac for PRN-18 ******** ID: 18 Health: 0 Eccentricity: 0.005883216858 Time of Applicability(s): 319488 Orbital Inclination(rad): 0.9712938649 Rate of Right Ascen(r/s): -7.966046103e-09 SQRT(A) (m 1/2): 5153.584961 Right Ascen at Week(rad): 2.204793658 Argument of Perigee(rad): -2.872200387 Mean Anom(rad): 1.47788001 Af0(s): -0.0002924256348 Af1(s/s): 1.091394e-11 week: 367 ******** Week 367 almanac for PRN-19 ******** ID: 19 Health: 0 Eccentricity: 0.01138544083 Time of Applicability(s): 319488 Orbital Inclination(rad): 0.95760788 Rate of Right Ascen(r/s): -7.806039438e-09 SQRT(A) (m 1/2): 5153.686035 Right Ascen at Week(rad): 1.237077608 Argument of Perigee(rad): 2.957044579 Mean Anom(rad): -1.068723217 Af0(s): 0.0005516895996 Af1(s/s): 0 week: 367 ******** Week 367 almanac for PRN-20 ******** ID: 20 Health: 0 Eccentricity: 0.002119541168 Time of Applicability(s): 319488 Orbital Inclination(rad): 0.9606039362 Rate of Right Ascen(r/s): -7.828897533e-09 SQRT(A) (m 1/2): 5153.55127 Right Ascen at Week(rad): -2.025859069 Argument of Perigee(rad): -1.887405318 Mean Anom(rad): -0.128843151 Af0(s): 9.571663818e-05 Af1(s/s): 1.818989e-11 week: 367 ******** Week 367 almanac for PRN-21 ******** ID: 21 Health: 0 Eccentricity: 0.0008549690247 Time of Applicability(s): 319488 Orbital Inclination(rad): 0.9636539215 Rate of Right Ascen(r/s): -8.046049436e-09 SQRT(A) (m 1/2): 5153.745117 Right Ascen at Week(rad): -3.031180493 Argument of Perigee(rad): -0.1734390735 Mean Anom(rad): -0.4606657409 Af0(s): 0.0003278483276 Af1(s/s): 0 week: 367 ******** Week 367 almanac for PRN-22 ******** ID: 22 Health: 0 Eccentricity: 0.01199769974 Time of Applicability(s): 319488 Orbital Inclination(rad): 0.957925462 Rate of Right Ascen(r/s): -7.828897533e-09 SQRT(A) (m 1/2): 5153.563965 Right Ascen at Week(rad): 0.180155857 Argument of Perigee(rad): -0.9932334607 Mean Anom(rad): -2.174273957 Af0(s): -1.130511475e-05 Af1(s/s): 7.275958e-12 week: 367 ******** Week 367 almanac for PRN-23 ******** ID: 23 Health: 0 Eccentricity: 0.006123542786 Time of Applicability(s): 319488 Orbital Inclination(rad): 0.9887488884 Rate of Right Ascen(r/s): -7.817468486e-09 SQRT(A) (m 1/2): 5153.668945 Right Ascen at Week(rad): -3.070722068 Argument of Perigee(rad): -2.739582205 Mean Anom(rad): 0.3082297706 Af0(s): 0.000504961792 Af1(s/s): 3.637979e-12 week: 367 ******** Week 367 almanac for PRN-24 ******** ID: 24 Health: 0 Eccentricity: 0.01801776886 Time of Applicability(s): 319488 Orbital Inclination(rad): 0.9347779316 Rate of Right Ascen(r/s): -8.034620388e-09 SQRT(A) (m 1/2): 5153.581543 Right Ascen at Week(rad): -1.067440156 Argument of Perigee(rad): 1.142159926 Mean Anom(rad): 1.673037121 Af0(s): -1.884185791e-05 Af1(s/s): 1.818989e-11 week: 367 ******** Week 367 almanac for PRN-25 ******** ID: 25 Health: 0 Eccentricity: 0.01287078857 Time of Applicability(s): 319488 Orbital Inclination(rad): 0.9477268866 Rate of Right Ascen(r/s): -7.943188008e-09 SQRT(A) (m 1/2): 5153.643066 Right Ascen at Week(rad): 0.06556194941 Argument of Perigee(rad): 1.160162478 Mean Anom(rad): -0.1259246178 Af0(s): 0.0003383997681 Af1(s/s): -3.637979e-12 week: 367 ******** Week 367 almanac for PRN-26 ******** ID: 26 Health: 0 Eccentricity: 0.01103162765 Time of Applicability(s): 319488 Orbital Inclination(rad): 0.9284742293 Rate of Right Ascen(r/s): -8.160339911e-09 SQRT(A) (m 1/2): 5153.678711 Right Ascen at Week(rad): -0.009876873861 Argument of Perigee(rad): 0.712708971 Mean Anom(rad): -0.9516864 Af0(s): -0.0002818741943 Af1(s/s): -3.637979e-12 week: 367 ******** Week 367 almanac for PRN-27 ******** ID: 27 Health: 0 Eccentricity: 0.01436758041 Time of Applicability(s): 319488 Orbital Inclination(rad): 0.9519513259 Rate of Right Ascen(r/s): -7.863184676e-09 SQRT(A) (m 1/2): 5153.620605 Right Ascen at Week(rad): 1.120183853 Argument of Perigee(rad): 0.8953373235 Mean Anom(rad): -2.679449484 Af0(s): -9.345561523e-05 Af1(s/s): -1.818989e-11 week: 367 ******** Week 367 almanac for PRN-28 ******** ID: 28 Health: 0 Eccentricity: 0.0004239082336 Time of Applicability(s): 319488 Orbital Inclination(rad): 0.9616885086 Rate of Right Ascen(r/s): -7.783181343e-09 SQRT(A) (m 1/2): 5153.516113 Right Ascen at Week(rad): -0.9831742019 Argument of Perigee(rad): -0.3922627812 Mean Anom(rad): 1.409408141 Af0(s): -0.0004333627319 Af1(s/s): 1.091394e-11 week: 367 ******** Week 367 almanac for PRN-29 ******** ID: 29 Health: 0 Eccentricity: 0.003531455994 Time of Applicability(s): 319488 Orbital Inclination(rad): 0.9611132658 Rate of Right Ascen(r/s): -7.806039438e-09 SQRT(A) (m 1/2): 5153.685547 Right Ascen at Week(rad): 1.210086887 Argument of Perigee(rad): 2.764713873 Mean Anom(rad): -2.853846546 Af0(s): -0.0002652933594 Af1(s/s): 7.275958e-12 week: 367 ******** Week 367 almanac for PRN-30 ******** ID: 30 Health: 0 Eccentricity: 0.008209228516 Time of Applicability(s): 319488 Orbital Inclination(rad): 0.9360542515 Rate of Right Ascen(r/s): -8.046049436e-09 SQRT(A) (m 1/2): 5153.669434 Right Ascen at Week(rad): -0.9677411418 Argument of Perigee(rad): -2.284899588 Mean Anom(rad): 0.4585082059 Af0(s): 0.0001552569092 Af1(s/s): 1.455192e-11 week: 367 ******** Week 367 almanac for PRN-31 ******** ID: 31 Health: 0 Eccentricity: 0.01081371307 Time of Applicability(s): 319488 Orbital Inclination(rad): 0.9545399184 Rate of Right Ascen(r/s): -7.851755628e-09 SQRT(A) (m 1/2): 5153.533203 Right Ascen at Week(rad): -0.9335508971 Argument of Perigee(rad): 0.9451167977 Mean Anom(rad): -0.3869927183 Af0(s): -0.0001213415649 Af1(s/s): 3.637979e-12 week: 367 ******** Week 367 almanac for PRN-32 ******** ID: 32 Health: 0 Eccentricity: 0.009379386902 Time of Applicability(s): 319488 Orbital Inclination(rad): 0.9682199112 Rate of Right Ascen(r/s): -7.703178011e-09 SQRT(A) (m 1/2): 5153.708008 Right Ascen at Week(rad): -2.014038503 Argument of Perigee(rad): -1.979787214 Mean Anom(rad): -2.135733439 Af0(s): 1.205878906e-05 Af1(s/s): 1.818989e-11 week: 367